Time,TemperatureF,DewpointF,PressureIn,WindDirection,WindDirectionDegrees,WindSpeedMPH,WindSpeedGustMPH,Humidity,HourlyPrecipIn,Conditions,Clouds,dailyrainin,SoftwareType,DateUTC
2013-03-02 00:04:00,50.2,33.7,30.23,NW,315,5.8,5.8,53,0.00,CLR,FEW,0.00,WeatherDisplay:10.37,2013-03-02 06:04:00,
2013-03-02 00:09:00,50.2,34.2,30.23,NW,315,5.8,5.8,54,0.00,CLR,FEW,0.00,WeatherDisplay:10.37,2013-03-02 06:09:00,
2013-03-02 00:14:00,50.0,34.0,30.23,NW,315,4.5,4.5,54,0.00,CLR,FEW,0.00,WeatherDisplay:10.37,2013-03-02 06:14:00,
2013-03-02 00:19:00,50.0,34.0,30.23,NW,315,3.5,3.5,54,0.00,CLR,FEW,0.00,WeatherDisplay:10.37,2013-03-02 06:19:00,
2013-03-02 00:24:00,50.0,34.5,30.24,NW,315,5.8,5.8,55,0.00,CLR,FEW,0.00,WeatherDisplay:10.37,2013-03-02 06:24:00,
2013-03-02 00:29:00,50.0,34.0,30.23,NW,315,4.6,4.6,54,0.00,CLR,FEW,0.00,WeatherDisplay:10.37,2013-03-02 06:29:00,
2013-03-02 00:34:00,49.6,33.7,30.24,NW,315,3.5,3.5,54,0.00,CLR,FEW,0.00,WeatherDisplay:10.37,2013-03-02 06:34:00,
2013-03-02 00:39:00,49.5,34.4,30.24,NW,315,5.8,5.8,56,0.00,CLR,FEW,0.00,WeatherDisplay:10.37,2013-03-02 06:39:00,
2013-03-02 00:44:00,49.3,34.7,30.24,NW,315,3.5,3.5,57,0.00,CLR,FEW,0.00,WeatherDisplay:10.37,2013-03-02 06:44:00,
2013-03-02 00:49:00,49.1,34.1,30.24,NW,315,5.8,5.8,56,0.00,CLR,FEW,0.00,WeatherDisplay:10.37,2013-03-02 06:49:00,
2013-03-02 00:54:00,48.9,34.3,30.24,NW,315,3.5,3.5,57,0.00,CLR,FEW,0.00,WeatherDisplay:10.37,2013-03-02 06:54:00,
2013-03-02 00:59:00,48.7,34.2,30.24,NW,315,3.1,3.1,57,0.00,CLR,FEW,0.00,WeatherDisplay:10.37,2013-03-02 06:59:00,
2013-03-02 01:04:00,48.4,33.8,30.24,NW,315,3.5,3.5,57,0.00,CLR,FEW,0.00,WeatherDisplay:10.37,2013-03-02 07:04:00,
2013-03-02 01:09:00,48.2,34.1,30.25,West,270,3.5,3.5,58,0.00,CLR,FEW,0.00,WeatherDisplay:10.37,2013-03-02 07:09:00,
2013-03-02 01:14:00,48.0,34.8,30.25,West,270,3.1,3.1,60,0.00,CLR,FEW,0.00,WeatherDisplay:10.37,2013-03-02 07:14:00,
2013-03-02 01:19:00,47.8,35.0,30.24,West,270,4.6,4.6,61,0.00,CLR,FEW,0.00,WeatherDisplay:10.37,2013-03-02 07:19:00,
2013-03-02 01:24:00,47.8,35.4,30.25,West,270,3.5,3.5,62,0.00,CLR,FEW,0.00,WeatherDisplay:10.37,2013-03-02 07:24:00,
2013-03-02 01:29:00,47.8,34.6,30.25,West,270,3.5,3.5,60,0.00,CLR,FEW,0.00,WeatherDisplay:10.37,2013-03-02 07:29:00,
2013-03-02 01:34:00,47.7,34.4,30.25,West,270,4.5,4.5,60,0.00,CLR,FEW,0.00,WeatherDisplay:10.37,2013-03-02 07:34:00,
2013-03-02 01:39:00,47.5,34.3,30.25,West,270,2.3,2.3,60,0.00,CLR,FEW,0.00,WeatherDisplay:10.37,2013-03-02 07:39:00,
2013-03-02 01:44:00,47.3,34.5,30.25,West,270,3.5,3.5,61,0.00,CLR,FEW,0.00,WeatherDisplay:10.37,2013-03-02 07:44:00,
2013-03-02 01:49:00,47.3,34.9,30.25,West,270,5.8,5.8,62,0.00,CLR,FEW,0.00,WeatherDisplay:10.37,2013-03-02 07:49:00,
2013-03-02 01:54:00,47.5,34.7,30.25,West,270,6.0,6.0,61,0.00,CLR,FEW,0.00,WeatherDisplay:10.37,2013-03-02 07:54:00,
2013-03-02 01:59:00,47.5,34.7,30.25,West,270,5.8,5.8,61,0.00,CLR,FEW,0.00,WeatherDisplay:10.37,2013-03-02 07:59:00,
2013-03-02 02:04:00,47.7,35.3,30.25,NW,315,6.0,6.0,62,0.00,CLR,FEW,0.00,WeatherDisplay:10.37,2013-03-02 08:04:00,
2013-03-02 02:09:00,47.7,34.0,30.25,NW,315,5.8,5.8,59,0.00,CLR,FEW,0.00,WeatherDisplay:10.37,2013-03-02 08:09:00,
2013-03-02 02:14:00,47.5,34.3,30.25,WNW,292,4.6,4.6,60,0.00,CLR,FEW,0.00,WeatherDisplay:10.37,2013-03-02 08:14:00,
2013-03-02 02:19:00,47.5,34.3,30.25,West,270,4.6,4.6,60,0.00,CLR,FEW,0.00,WeatherDisplay:10.37,2013-03-02 08:19:00,
2013-03-02 02:24:00,47.7,35.3,30.25,West,270,5.8,5.8,62,0.00,CLR,FEW,0.00,WeatherDisplay:10.37,2013-03-02 08:24:00,
2013-03-02 02:29:00,47.7,34.4,30.25,NW,315,4.6,4.6,60,0.00,CLR,FEW,0.00,WeatherDisplay:10.37,2013-03-02 08:29:00,
2013-03-02 02:34:00,47.7,34.4,30.25,WNW,292,5.8,5.8,60,0.00,CLR,FEW,0.00,WeatherDisplay:10.37,2013-03-02 08:34:00,
2013-03-02 02:39:00,47.7,33.6,30.25,NW,315,4.6,4.6,58,0.00,CLR,FEW,0.00,WeatherDisplay:10.37,2013-03-02 08:39:00,
2013-03-02 02:44:00,47.3,33.7,30.25,NW,315,4.6,4.6,59,0.00,CLR,FEW,0.00,WeatherDisplay:10.37,2013-03-02 08:44:00,
2013-03-02 02:49:00,47.1,33.9,30.25,NW,315,4.6,4.6,60,0.00,CLR,FEW,0.00,WeatherDisplay:10.37,2013-03-02 08:49:00,
2013-03-02 02:54:00,46.8,33.6,30.25,NW,315,4.5,4.5,60,0.00,CLR,FEW,0.00,WeatherDisplay:10.37,2013-03-02 08:54:00,
2013-03-02 02:59:00,46.6,34.2,30.25,NW,315,3.5,3.5,62,0.00,CLR,FEW,0.00,WeatherDisplay:10.37,2013-03-02 08:59:00,
2013-03-02 03:04:00,46.0,33.7,30.25,NW,315,5.8,5.8,62,0.00,CLR,FEW,0.00,WeatherDisplay:10.37,2013-03-02 09:04:00,
2013-03-02 03:09:00,45.9,33.6,30.25,NW,315,3.5,3.5,62,0.00,CLR,FEW,0.00,WeatherDisplay:10.37,2013-03-02 09:09:00,
2013-03-02 03:14:00,45.7,33.4,30.25,West,270,4.6,4.6,62,0.00,CLR,FEW,0.00,WeatherDisplay:10.37,2013-03-02 09:14:00,
2013-03-02 03:19:00,45.5,33.2,30.25,NW,315,4.6,4.6,62,0.00,CLR,FEW,0.00,WeatherDisplay:10.37,2013-03-02 09:19:00,
2013-03-02 03:24:00,45.3,32.7,30.25,NW,315,4.5,4.5,61,0.00,CLR,FEW,0.00,WeatherDisplay:10.37,2013-03-02 09:24:00,
2013-03-02 03:29:00,45.1,32.9,30.25,West,270,3.5,3.5,62,0.00,CLR,FEW,0.00,WeatherDisplay:10.37,2013-03-02 09:29:00,
2013-03-02 03:34:00,45.1,32.9,30.25,NW,315,3.8,3.8,62,0.00,CLR,FEW,0.00,WeatherDisplay:10.37,2013-03-02 09:34:00,
2013-03-02 03:39:00,45.0,33.5,30.25,NW,315,4.6,4.6,64,0.00,CLR,FEW,0.00,WeatherDisplay:10.37,2013-03-02 09:39:00,
2013-03-02 03:44:00,44.8,32.9,30.25,NW,315,4.6,4.6,63,0.00,CLR,FEW,0.00,WeatherDisplay:10.37,2013-03-02 09:44:00,
2013-03-02 03:49:00,44.8,33.7,30.25,NW,315,2.3,2.3,65,0.00,CLR,FEW,0.00,WeatherDisplay:10.37,2013-03-02 09:49:00,
2013-03-02 03:54:00,44.4,32.6,30.26,North,0,1.6,0.0,63,0.00,CLR,FEW,0.00,WeatherDisplay:10.37,2013-03-02 09:54:00,
2013-03-02 03:59:00,43.9,32.1,30.26,North,0,1.6,1.6,63,0.00,CLR,FEW,0.00,WeatherDisplay:10.37,2013-03-02 09:59:00,
2013-03-02 04:04:00,43.3,31.2,30.26,North,0,0.0,0.0,62,0.00,CLR,FEW,0.00,WeatherDisplay:10.37,2013-03-02 10:04:00,
2013-03-02 04:09:00,42.8,31.1,30.26,North,0,0.0,0.0,63,0.00,CLR,FEW,0.00,WeatherDisplay:10.37,2013-03-02 10:09:00,
2013-03-02 04:15:00,42.3,32.1,30.26,NW,315,3.8,0.0,67,0.00,CLR,FEW,0.00,WeatherDisplay:10.37,2013-03-02 10:15:00,
2013-03-02 04:20:00,42.4,32.6,30.26,NW,315,3.5,3.5,68,0.00,CLR,FEW,0.00,WeatherDisplay:10.37,2013-03-02 10:20:00,
2013-03-02 04:25:00,42.6,32.8,30.26,NW,315,3.5,3.5,68,0.00,CLR,FEW,0.00,WeatherDisplay:10.37,2013-03-02 10:25:00,
2013-03-02 04:30:00,42.8,33.0,30.26,NW,315,3.8,3.8,68,0.00,CLR,FEW,0.00,WeatherDisplay:10.37,2013-03-02 10:30:00,
2013-03-02 04:36:00,42.8,33.7,30.26,NW,315,4.6,4.6,70,0.00,CLR,FEW,0.00,WeatherDisplay:10.37,2013-03-02 10:36:00,
2013-03-02 04:41:00,42.8,33.0,30.27,NW,312,2.0,0.0,68,0.00,CLR,FEW,0.00,WeatherDisplay:10.37,2013-03-02 10:41:00,
2013-03-02 04:46:00,42.6,33.5,30.27,NW,315,1.0,0.0,70,0.00,CLR,FEW,0.00,WeatherDisplay:10.37,2013-03-02 10:46:00,
2013-03-02 04:51:00,42.4,33.0,30.27,NW,319,0.0,0.0,69,0.00,CLR,FEW,0.00,WeatherDisplay:10.37,2013-03-02 10:51:00,
2013-03-02 04:56:00,42.4,33.3,30.27,NW,316,2.0,0.0,70,0.00,CLR,FEW,0.00,WeatherDisplay:10.37,2013-03-02 10:56:00,
2013-03-02 05:01:00,42.3,33.2,30.27,NW,315,2.0,0.0,70,0.00,CLR,FEW,0.00,WeatherDisplay:10.37,2013-03-02 11:01:00,
2013-03-02 05:06:00,42.4,33.7,30.27,NW,313,2.0,0.0,71,0.00,CLR,FEW,0.00,WeatherDisplay:10.37,2013-03-02 11:06:00,
2013-03-02 05:11:00,42.6,33.5,30.27,NW,311,2.0,0.0,70,0.00,CLR,FEW,0.00,WeatherDisplay:10.37,2013-03-02 11:11:00,
2013-03-02 05:16:00,42.6,33.5,30.27,NW,312,3.0,0.0,70,0.00,CLR,FEW,0.00,WeatherDisplay:10.37,2013-03-02 11:16:00,
2013-03-02 05:21:00,42.8,33.7,30.27,NW,317,3.0,0.0,70,0.00,CLR,FEW,0.00,WeatherDisplay:10.37,2013-03-02 11:21:00,
2013-03-02 05:26:00,42.8,33.7,30.27,NW,322,2.0,0.0,70,0.00,CLR,FEW,0.00,WeatherDisplay:10.37,2013-03-02 11:26:00,
2013-03-02 05:31:00,42.4,33.7,30.28,NW,318,3.0,0.0,71,0.00,CLR,FEW,0.00,WeatherDisplay:10.37,2013-03-02 11:31:00,
2013-03-02 05:36:00,42.3,33.2,30.28,NW,320,2.0,0.0,70,0.00,CLR,FEW,0.00,WeatherDisplay:10.37,2013-03-02 11:36:00,
2013-03-02 05:41:00,42.1,33.4,30.29,NW,315,4.6,4.6,71,0.00,CLR,FEW,0.00,WeatherDisplay:10.37,2013-03-02 11:41:00,
2013-03-02 05:46:00,41.9,32.8,30.28,NNW,338,1.6,0.0,70,0.00,CLR,FEW,0.00,WeatherDisplay:10.37,2013-03-02 11:46:00,
2013-03-02 05:51:00,41.9,33.5,30.29,NW,315,3.5,3.5,72,0.00,CLR,FEW,0.00,WeatherDisplay:10.37,2013-03-02 11:51:00,
2013-03-02 05:56:00,41.9,33.5,30.29,NW,315,4.6,4.6,72,0.00,CLR,FEW,0.00,WeatherDisplay:10.37,2013-03-02 11:56:00,
2013-03-02 06:01:00,41.7,33.0,30.28,NW,315,3.5,3.5,71,0.00,CLR,FEW,0.00,WeatherDisplay:10.37,2013-03-02 12:01:00,
2013-03-02 06:06:00,41.7,33.4,30.29,NW,315,5.8,5.8,72,0.00,CLR,FEW,0.00,WeatherDisplay:10.37,2013-03-02 12:06:00,
2013-03-02 06:11:00,41.9,33.5,30.29,NW,315,4.6,4.6,72,0.00,CLR,FEW,0.00,WeatherDisplay:10.37,2013-03-02 12:11:00,
2013-03-02 06:16:00,41.7,33.4,30.29,North,0,2.3,2.3,72,0.00,CLR,FEW,0.00,WeatherDisplay:10.37,2013-03-02 12:16:00,
2013-03-02 06:21:00,41.4,31.9,30.29,North,0,1.2,0.0,69,0.00,CLR,FEW,0.00,WeatherDisplay:10.37,2013-03-02 12:21:00,
2013-03-02 06:26:00,41.2,32.1,30.29,North,0,1.2,1.2,70,0.00,CLR,FEW,0.00,WeatherDisplay:10.37,2013-03-02 12:26:00,
2013-03-02 06:31:00,40.6,31.3,30.29,North,0,1.6,0.0,69,0.00,CLR,FEW,0.00,WeatherDisplay:10.37,2013-03-02 12:31:00,
2013-03-02 06:36:00,40.3,30.9,30.30,North,0,1.2,0.0,69,0.00,CLR,FEW,0.00,WeatherDisplay:10.37,2013-03-02 12:36:00,
2013-03-02 06:41:00,39.7,30.4,30.30,North,0,1.2,0.0,69,0.00,CLR,FEW,0.00,WeatherDisplay:10.37,2013-03-02 12:41:00,
2013-03-02 06:46:00,39.2,29.9,30.30,North,0,1.2,0.0,69,0.00,CLR,FEW,0.00,WeatherDisplay:10.37,2013-03-02 12:46:00,
2013-03-02 06:51:00,38.7,29.7,30.30,North,0,1.6,0.0,70,0.00,CLR,FEW,0.00,WeatherDisplay:10.37,2013-03-02 12:51:00,
2013-03-02 06:56:00,38.3,29.7,30.30,North,0,1.2,0.0,71,0.00,CLR,FEW,0.00,WeatherDisplay:10.37,2013-03-02 12:56:00,
2013-03-02 07:01:00,37.8,29.2,30.31,North,0,1.6,0.0,71,0.00,CLR,FEW,0.00,WeatherDisplay:10.37,2013-03-02 13:01:00,
2013-03-02 07:06:00,37.4,29.2,30.31,North,0,1.2,0.0,72,0.00,CLR,FEW,0.00,WeatherDisplay:10.37,2013-03-02 13:06:00,
2013-03-02 07:11:00,38.3,31.7,30.31,West,270,3.5,3.5,77,0.00,CLR,FEW,0.00,WeatherDisplay:10.37,2013-03-02 13:11:00,
2013-03-02 07:16:00,39.4,32.8,30.32,West,270,3.5,3.5,77,0.00,CLR,FEW,0.00,WeatherDisplay:10.37,2013-03-02 13:16:00,
2013-03-02 07:21:00,40.3,33.3,30.32,NW,315,3.8,3.8,76,0.00,CLR,FEW,0.00,WeatherDisplay:10.37,2013-03-02 13:21:00,
2013-03-02 07:26:00,40.6,33.7,30.32,West,270,4.6,4.6,76,0.00,CLR,FEW,0.00,WeatherDisplay:10.37,2013-03-02 13:26:00,
2013-03-02 07:31:00,40.8,33.2,30.33,West,270,6.9,6.9,74,0.00,CLR,FEW,0.00,WeatherDisplay:10.37,2013-03-02 13:31:00,
2013-03-02 07:36:00,41.0,33.3,30.33,NW,315,6.9,6.9,74,0.00,CLR,FEW,0.00,WeatherDisplay:10.37,2013-03-02 13:36:00,
2013-03-02 07:41:00,41.0,33.0,30.33,West,270,6.9,6.9,73,0.00,CLR,FEW,0.00,WeatherDisplay:10.37,2013-03-02 13:41:00,
2013-03-02 07:46:00,41.0,33.0,30.33,NW,315,5.8,5.8,73,0.00,CLR,FEW,0.00,WeatherDisplay:10.37,2013-03-02 13:46:00,
2013-03-02 07:51:00,41.2,33.5,30.33,West,270,8.3,8.3,74,0.00,CLR,FEW,0.00,WeatherDisplay:10.37,2013-03-02 13:51:00,
2013-03-02 07:56:00,41.4,33.0,30.34,NW,315,11.5,11.5,72,0.00,CLR,FEW,0.00,WeatherDisplay:10.37,2013-03-02 13:56:00,
2013-03-02 08:01:00,41.5,33.5,30.34,NW,315,8.3,8.3,73,0.00,CLR,FEW,0.00,WeatherDisplay:10.37,2013-03-02 14:01:00,
2013-03-02 08:06:00,41.5,32.5,30.33,West,270,8.1,8.1,70,0.00,CLR,FEW,0.00,WeatherDisplay:10.37,2013-03-02 14:06:00,
2013-03-02 08:11:00,41.7,33.0,30.34,NW,315,9.2,9.2,71,0.00,CLR,FEW,0.00,WeatherDisplay:10.37,2013-03-02 14:11:00,
2013-03-02 08:16:00,41.9,32.8,30.34,NW,315,10.4,10.4,70,0.00,CLR,FEW,0.00,WeatherDisplay:10.37,2013-03-02 14:16:00,
2013-03-02 08:21:00,41.9,32.1,30.35,NW,315,11.5,11.5,68,0.00,CLR,FEW,0.00,WeatherDisplay:10.37,2013-03-02 14:21:00,
2013-03-02 08:26:00,42.1,32.3,30.35,NW,315,10.4,10.4,68,0.00,CLR,FEW,0.00,WeatherDisplay:10.37,2013-03-02 14:26:00,
2013-03-02 08:31:00,42.1,32.3,30.35,NW,315,10.4,10.4,68,0.00,CLR,FEW,0.00,WeatherDisplay:10.37,2013-03-02 14:31:00,
2013-03-02 08:36:00,42.3,32.8,30.35,NW,315,9.2,9.2,69,0.00,CLR,FEW,0.00,WeatherDisplay:10.37,2013-03-02 14:36:00,
2013-03-02 08:41:00,42.4,32.3,30.35,NW,315,10.4,10.4,67,0.00,CLR,FEW,0.00,WeatherDisplay:10.37,2013-03-02 14:41:00,
2013-03-02 08:46:00,42.6,32.8,30.35,NW,315,10.4,10.4,68,0.00,CLR,FEW,0.00,WeatherDisplay:10.37,2013-03-02 14:46:00,
2013-03-02 08:51:00,42.8,32.6,30.35,NNW,338,8.1,8.1,67,0.00,CLR,FEW,0.00,WeatherDisplay:10.37,2013-03-02 14:51:00,
2013-03-02 08:56:00,43.0,32.8,30.36,NW,315,8.1,8.1,67,0.00,CLR,FEW,0.00,WeatherDisplay:10.37,2013-03-02 14:56:00,
2013-03-02 09:01:00,43.2,32.6,30.36,NW,315,5.8,5.8,66,0.00,CLR,FEW,0.00,WeatherDisplay:10.37,2013-03-02 15:01:00,
2013-03-02 09:06:00,43.5,32.9,30.36,North,0,10.4,10.4,66,0.00,CLR,FEW,0.00,WeatherDisplay:10.37,2013-03-02 15:06:00,
2013-03-02 09:11:00,43.5,32.5,30.36,NW,315,10.4,10.4,65,0.00,CLR,FEW,0.00,WeatherDisplay:10.37,2013-03-02 15:11:00,
2013-03-02 09:16:00,43.9,32.5,30.36,NW,315,8.1,8.1,64,0.00,CLR,FEW,0.00,WeatherDisplay:10.37,2013-03-02 15:16:00,
2013-03-02 09:21:00,44.1,32.7,30.36,NW,315,8.1,8.1,64,0.00,CLR,FEW,0.00,WeatherDisplay:10.37,2013-03-02 15:21:00,
2013-03-02 09:26:00,44.2,32.4,30.36,West,270,9.2,9.2,63,0.00,CLR,FEW,0.00,WeatherDisplay:10.37,2013-03-02 15:26:00,
2013-03-02 09:31:00,44.2,32.8,30.36,West,270,10.4,10.4,64,0.00,CLR,FEW,0.00,WeatherDisplay:10.37,2013-03-02 15:31:00,
2013-03-02 09:36:00,44.4,32.6,30.36,West,270,8.1,8.1,63,0.00,CLR,FEW,0.00,WeatherDisplay:10.37,2013-03-02 15:36:00,
2013-03-02 09:41:00,45.0,32.7,30.36,NW,315,9.2,9.2,62,0.00,CLR,FEW,0.00,WeatherDisplay:10.37,2013-03-02 15:41:00,
2013-03-02 09:46:00,45.3,33.9,30.36,NW,315,5.4,5.4,64,0.00,CLR,FEW,0.00,WeatherDisplay:10.37,2013-03-02 15:46:00,
2013-03-02 09:51:00,45.9,33.2,30.36,NW,315,8.1,8.1,61,0.00,CLR,FEW,0.00,WeatherDisplay:10.37,2013-03-02 15:51:00,
2013-03-02 09:56:00,46.4,34.1,30.36,NW,315,9.2,9.2,62,0.00,CLR,FEW,0.00,WeatherDisplay:10.37,2013-03-02 15:56:00,
2013-03-02 10:01:00,46.9,32.0,30.36,NW,315,12.7,12.7,56,0.00,CLR,FEW,0.00,WeatherDisplay:10.37,2013-03-02 16:01:00,
2013-03-02 10:06:00,47.1,30.4,30.36,NW,315,13.8,13.8,52,0.00,CLR,FEW,0.00,WeatherDisplay:10.37,2013-03-02 16:06:00,
2013-03-02 10:11:00,47.8,32.0,30.36,NW,315,9.2,9.2,54,0.00,CLR,FEW,0.00,WeatherDisplay:10.37,2013-03-02 16:11:00,
2013-03-02 10:16:00,48.0,30.7,30.36,NNW,338,6.9,6.9,51,0.00,CLR,FEW,0.00,WeatherDisplay:10.37,2013-03-02 16:16:00,
2013-03-02 10:21:00,48.4,30.6,30.35,NW,315,9.2,9.2,50,0.00,CLR,FEW,0.00,WeatherDisplay:10.37,2013-03-02 16:21:00,
2013-03-02 10:26:00,48.6,30.7,30.35,NW,315,11.5,11.5,50,0.00,CLR,FEW,0.00,WeatherDisplay:10.37,2013-03-02 16:26:00,
2013-03-02 10:31:00,48.9,31.6,30.35,NE,45,9.2,9.2,51,0.00,CLR,FEW,0.00,WeatherDisplay:10.37,2013-03-02 16:31:00,
2013-03-02 10:36:00,49.3,29.4,30.34,North,0,9.2,9.2,46,0.00,CLR,FEW,0.00,WeatherDisplay:10.37,2013-03-02 16:36:00,
2013-03-02 10:41:00,49.6,30.7,30.35,NW,315,6.9,6.9,48,0.00,CLR,FEW,0.00,WeatherDisplay:10.37,2013-03-02 16:41:00,
2013-03-02 10:46:00,50.0,31.6,30.35,NW,315,10.4,10.4,49,0.00,CLR,FEW,0.00,WeatherDisplay:10.37,2013-03-02 16:46:00,
2013-03-02 10:51:00,50.0,31.1,30.35,NW,315,10.4,10.4,48,0.00,CLR,FEW,0.00,WeatherDisplay:10.37,2013-03-02 16:51:00,
2013-03-02 10:56:00,49.8,28.2,30.35,NW,315,10.4,10.4,43,0.00,CLR,FEW,0.00,WeatherDisplay:10.37,2013-03-02 16:56:00,
2013-03-02 11:01:00,50.0,29.5,30.35,NNW,338,12.7,12.7,45,0.00,CLR,FEW,0.00,WeatherDisplay:10.37,2013-03-02 17:01:00,
2013-03-02 11:06:00,50.4,29.2,30.35,NW,315,10.4,10.4,44,0.00,CLR,FEW,0.00,WeatherDisplay:10.37,2013-03-02 17:06:00,
2013-03-02 11:11:00,50.9,29.7,30.35,NW,315,8.1,8.1,44,0.00,CLR,FEW,0.00,WeatherDisplay:10.37,2013-03-02 17:11:00,
2013-03-02 11:16:00,51.4,27.9,30.35,NE,45,4.6,4.6,40,0.00,CLR,FEW,0.00,WeatherDisplay:10.37,2013-03-02 17:16:00,
2013-03-02 11:21:00,51.4,29.1,30.35,NW,315,11.5,11.5,42,0.00,CLR,FEW,0.00,WeatherDisplay:10.37,2013-03-02 17:21:00,
2013-03-02 11:26:00,51.4,29.1,30.34,West,270,5.8,5.8,42,0.00,CLR,FEW,0.00,WeatherDisplay:10.37,2013-03-02 17:26:00,
2013-03-02 11:31:00,51.6,28.7,30.34,West,270,13.7,13.7,41,0.00,CLR,FEW,0.00,WeatherDisplay:10.37,2013-03-02 17:31:00,
2013-03-02 11:37:00,51.6,28.1,30.34,West,270,14.5,14.5,40,0.00,CLR,FEW,0.00,WeatherDisplay:10.37,2013-03-02 17:37:00,
2013-03-02 11:42:00,52.0,29.0,30.34,NW,315,10.4,10.4,41,0.00,CLR,FEW,0.00,WeatherDisplay:10.37,2013-03-02 17:42:00,
2013-03-02 11:47:00,52.3,26.8,30.33,NW,315,10.4,10.4,37,0.00,CLR,FEW,0.00,WeatherDisplay:10.37,2013-03-02 17:47:00,
2013-03-02 11:52:00,52.5,27.0,30.33,NW,315,8.1,8.1,37,0.00,CLR,FEW,0.00,WeatherDisplay:10.37,2013-03-02 17:52:00,
2013-03-02 11:57:00,53.1,28.1,30.32,NW,315,11.4,11.4,38,0.00,CLR,FEW,0.00,WeatherDisplay:10.37,2013-03-02 17:57:00,
2013-03-02 12:06:00,53.4,30.3,30.33,NW,304,5.0,0.0,41,0.00,CLR,FEW,0.00,WeatherDisplay:10.37,2013-03-02 18:06:00,
2013-03-02 12:11:00,53.4,27.7,30.32,WNW,299,6.0,0.0,37,0.00,CLR,FEW,0.00,WeatherDisplay:10.37,2013-03-02 18:11:00,
2013-03-02 12:16:00,53.5,29.1,30.32,WNW,301,6.0,0.0,39,0.00,CLR,FEW,0.00,WeatherDisplay:10.37,2013-03-02 18:16:00,
2013-03-02 12:21:00,53.4,28.4,30.32,NW,309,3.0,0.0,38,0.00,CLR,FEW,0.00,WeatherDisplay:10.37,2013-03-02 18:21:00,
2013-03-02 12:26:00,53.4,27.8,30.31,WNW,297,5.0,0.0,37,0.00,CLR,FEW,0.00,WeatherDisplay:10.37,2013-03-02 18:26:00,
2013-03-02 12:31:00,53.6,26.6,30.31,WNW,292,5.0,0.0,35,0.00,CLR,FEW,0.00,WeatherDisplay:10.37,2013-03-02 18:31:00,
2013-03-02 12:36:00,54.0,29.5,30.31,WNW,300,5.0,0.0,39,0.00,CLR,FEW,0.00,WeatherDisplay:10.37,2013-03-02 18:36:00,
2013-03-02 12:41:00,54.5,29.4,30.30,WNW,285,8.0,0.0,38,0.00,CLR,FEW,0.00,WeatherDisplay:10.37,2013-03-02 18:41:00,
2013-03-02 12:46:00,54.5,28.1,30.30,WNW,298,6.0,0.0,36,0.00,CLR,FEW,0.00,WeatherDisplay:10.37,2013-03-02 18:46:00,
2013-03-02 12:51:00,54.7,26.8,30.29,NW,323,2.0,0.0,34,0.00,CLR,FEW,0.00,WeatherDisplay:10.37,2013-03-02 18:51:00,
2013-03-02 12:56:00,55.0,27.9,30.29,NW,321,5.0,0.0,35,0.00,CLR,FEW,0.00,WeatherDisplay:10.37,2013-03-02 18:56:00,
2013-03-02 13:01:00,55.2,28.0,30.29,WNW,294,5.0,0.0,35,0.00,CLR,FEW,0.00,WeatherDisplay:10.37,2013-03-02 19:01:00,
2013-03-02 13:06:00,55.5,29.0,30.28,West,276,7.0,0.0,36,0.00,CLR,FEW,0.00,WeatherDisplay:10.37,2013-03-02 19:06:00,
2013-03-02 13:11:00,55.9,28.7,30.28,West,278,3.0,0.0,35,0.00,CLR,FEW,0.00,WeatherDisplay:10.37,2013-03-02 19:11:00,
2013-03-02 13:16:00,56.1,27.4,30.28,WNW,287,5.0,0.0,33,0.00,CLR,FEW,0.00,WeatherDisplay:10.37,2013-03-02 19:16:00,
2013-03-02 13:21:00,56.3,28.3,30.28,NW,307,6.0,0.0,34,0.00,CLR,FEW,0.00,WeatherDisplay:10.37,2013-03-02 19:21:00,
2013-03-02 13:26:00,56.7,27.9,30.27,NNW,332,1.0,0.0,33,0.00,CLR,FEW,0.00,WeatherDisplay:10.37,2013-03-02 19:26:00,
2013-03-02 13:31:00,56.8,28.0,30.26,NW,316,3.0,0.0,33,0.00,CLR,FEW,0.00,WeatherDisplay:10.37,2013-03-02 19:31:00,
2013-03-02 13:36:00,56.8,29.4,30.27,WNW,289,5.0,0.0,35,0.00,CLR,FEW,0.00,WeatherDisplay:10.37,2013-03-02 19:36:00,
2013-03-02 13:41:00,57.0,28.2,30.26,West,281,1.0,0.0,33,0.00,CLR,FEW,0.00,WeatherDisplay:10.37,2013-03-02 19:41:00,
2013-03-02 13:46:00,57.5,27.8,30.26,NW,307,3.0,0.0,32,0.00,CLR,FEW,0.00,WeatherDisplay:10.37,2013-03-02 19:46:00,
2013-03-02 13:51:00,57.6,29.4,30.26,NW,319,6.0,0.0,34,0.00,CLR,FEW,0.00,WeatherDisplay:10.37,2013-03-02 19:51:00,
2013-03-02 14:01:00,57.9,29.0,30.25,NW,306,6.0,0.0,33,0.00,CLR,FEW,0.00,WeatherDisplay:10.37,2013-03-02 20:01:00,
2013-03-02 14:06:00,58.2,30.0,30.25,NW,323,6.0,0.0,34,0.00,CLR,FEW,0.00,WeatherDisplay:10.37,2013-03-02 20:06:00,
2013-03-02 14:11:00,58.2,30.6,30.25,NW,317,5.0,0.0,35,0.00,CLR,FEW,0.00,WeatherDisplay:10.37,2013-03-02 20:11:00,
2013-03-02 14:16:00,58.3,27.7,30.25,NW,318,2.0,0.0,31,0.00,CLR,FEW,0.00,WeatherDisplay:10.37,2013-03-02 20:16:00,
2013-03-02 14:21:00,58.8,30.5,30.25,WNW,297,7.0,0.0,34,0.00,CLR,FEW,0.00,WeatherDisplay:10.37,2013-03-02 20:21:00,
2013-03-02 14:26:00,58.8,30.5,30.24,WNW,284,6.0,0.0,34,0.00,CLR,FEW,0.00,WeatherDisplay:10.37,2013-03-02 20:26:00,
2013-03-02 14:31:00,59.0,29.2,30.24,WNW,291,3.0,0.0,32,0.00,CLR,FEW,0.00,WeatherDisplay:10.37,2013-03-02 20:31:00,
2013-03-02 14:36:00,59.3,31.6,30.24,WNW,291,7.0,0.0,35,0.00,CLR,FEW,0.00,WeatherDisplay:10.37,2013-03-02 20:36:00,
2013-03-02 14:41:00,59.4,28.7,30.24,WNW,303,5.0,0.0,31,0.00,CLR,FEW,0.00,WeatherDisplay:10.37,2013-03-02 20:41:00,
2013-03-02 14:46:00,59.4,29.5,30.24,NW,315,3.0,0.0,32,0.00,CLR,FEW,0.00,WeatherDisplay:10.37,2013-03-02 20:46:00,
2013-03-02 14:51:00,59.5,30.4,30.23,WNW,294,7.0,0.0,33,0.00,CLR,FEW,0.00,WeatherDisplay:10.37,2013-03-02 20:51:00,
2013-03-02 14:56:00,59.7,29.8,30.23,NW,316,6.0,0.0,32,0.00,CLR,FEW,0.00,WeatherDisplay:10.37,2013-03-02 20:56:00,
2013-03-02 15:01:00,60.0,31.5,30.23,NW,320,7.0,0.0,34,0.00,CLR,FEW,0.00,WeatherDisplay:10.37,2013-03-02 21:01:00,
2013-03-02 15:06:00,60.1,27.7,30.22,WNW,297,6.0,0.0,29,0.00,CLR,FEW,0.00,WeatherDisplay:10.37,2013-03-02 21:06:00,
2013-03-02 15:11:00,60.2,28.6,30.22,WNW,302,7.0,0.0,30,0.00,CLR,FEW,0.00,WeatherDisplay:10.37,2013-03-02 21:11:00,
2013-03-02 15:16:00,60.1,30.9,30.22,WNW,302,5.0,0.0,33,0.00,CLR,FEW,0.00,WeatherDisplay:10.37,2013-03-02 21:16:00,
2013-03-02 15:21:00,60.3,30.3,30.21,WNW,294,5.0,0.0,32,0.00,CLR,FEW,0.00,WeatherDisplay:10.37,2013-03-02 21:21:00,
2013-03-02 15:26:00,60.4,30.4,30.21,WNW,292,6.0,0.0,32,0.00,CLR,FEW,0.00,WeatherDisplay:10.37,2013-03-02 21:26:00,
2013-03-02 15:31:00,60.6,30.6,30.21,WNW,295,6.0,0.0,32,0.00,CLR,FEW,0.00,WeatherDisplay:10.37,2013-03-02 21:31:00,
2013-03-02 15:36:00,60.8,29.9,30.20,WNW,302,8.0,0.0,31,0.00,CLR,FEW,0.00,WeatherDisplay:10.37,2013-03-02 21:36:00,
2013-03-02 15:41:00,60.8,29.1,30.20,NW,307,7.0,0.0,30,0.00,CLR,FEW,0.00,WeatherDisplay:10.37,2013-03-02 21:41:00,
2013-03-02 15:46:00,61.0,30.1,30.20,NW,316,5.0,0.0,31,0.00,CLR,FEW,0.00,WeatherDisplay:10.37,2013-03-02 21:46:00,
2013-03-02 15:51:00,61.3,30.4,30.20,NW,305,7.0,0.0,31,0.00,CLR,FEW,0.00,WeatherDisplay:10.37,2013-03-02 21:51:00,
2013-03-02 15:56:00,61.3,29.6,30.20,NW,304,6.0,0.0,30,0.00,CLR,FEW,0.00,WeatherDisplay:10.37,2013-03-02 21:56:00,
2013-03-02 16:01:00,61.5,29.8,30.20,NW,314,8.0,0.0,30,0.00,CLR,FEW,0.00,WeatherDisplay:10.37,2013-03-02 22:01:00,
2013-03-02 16:06:00,61.5,31.4,30.19,NW,318,6.0,0.0,32,0.00,CLR,FEW,0.00,WeatherDisplay:10.37,2013-03-02 22:06:00,
2013-03-02 16:11:00,61.7,32.3,30.19,NW,314,7.0,0.0,33,0.00,CLR,FEW,0.00,WeatherDisplay:10.37,2013-03-02 22:11:00,
2013-03-02 16:16:00,61.9,29.2,30.19,WNW,303,5.0,0.0,29,0.00,CLR,FEW,0.00,WeatherDisplay:10.37,2013-03-02 22:16:00,
2013-03-02 16:21:00,62.0,29.3,30.19,NW,307,8.0,0.0,29,0.00,CLR,FEW,0.00,WeatherDisplay:10.37,2013-03-02 22:21:00,
2013-03-02 16:26:00,61.9,29.2,30.19,NW,310,6.0,0.0,29,0.00,CLR,FEW,0.00,WeatherDisplay:10.37,2013-03-02 22:26:00,
2013-03-02 16:31:00,61.9,30.1,30.19,NW,311,6.0,0.0,30,0.00,CLR,FEW,0.00,WeatherDisplay:10.37,2013-03-02 22:31:00,
2013-03-02 16:36:00,62.1,30.2,30.19,NW,318,3.0,0.0,30,0.00,CLR,FEW,0.00,WeatherDisplay:10.37,2013-03-02 22:36:00,
2013-03-02 16:41:00,62.2,30.4,30.19,NNW,330,7.0,0.0,30,0.00,CLR,FEW,0.00,WeatherDisplay:10.37,2013-03-02 22:41:00,
2013-03-02 16:46:00,62.2,31.2,30.18,NW,322,5.0,0.0,31,0.00,CLR,FEW,0.00,WeatherDisplay:10.37,2013-03-02 22:46:00,
2013-03-02 16:51:00,62.3,30.5,30.19,NW,312,6.0,0.0,30,0.00,CLR,FEW,0.00,WeatherDisplay:10.37,2013-03-02 22:51:00,
2013-03-02 16:56:00,62.6,30.7,30.19,NW,315,6.0,0.0,30,0.00,CLR,FEW,0.00,WeatherDisplay:10.37,2013-03-02 22:56:00,
2013-03-02 17:01:00,62.6,30.7,30.18,NW,318,6.0,0.0,30,0.00,CLR,FEW,0.00,WeatherDisplay:10.37,2013-03-02 23:01:00,
2013-03-02 17:06:00,62.6,30.7,30.18,NW,319,6.0,0.0,30,0.00,CLR,FEW,0.00,WeatherDisplay:10.37,2013-03-02 23:06:00,
2013-03-02 17:11:00,62.8,30.0,30.18,NW,315,3.0,0.0,29,0.00,CLR,FEW,0.00,WeatherDisplay:10.37,2013-03-02 23:11:00,
2013-03-02 17:16:00,62.8,30.9,30.18,WNW,298,3.0,0.0,30,0.00,CLR,FEW,0.00,WeatherDisplay:10.37,2013-03-02 23:16:00,
2013-03-02 17:21:00,63.1,31.2,30.18,NW,306,5.0,0.0,30,0.00,CLR,FEW,0.00,WeatherDisplay:10.37,2013-03-02 23:21:00,
2013-03-02 17:26:00,63.1,30.3,30.18,NW,319,2.0,0.0,29,0.00,CLR,FEW,0.00,WeatherDisplay:10.37,2013-03-02 23:26:00,
2013-03-02 17:31:00,63.3,28.7,30.18,WNW,301,3.0,0.0,27,0.00,CLR,FEW,0.00,WeatherDisplay:10.37,2013-03-02 23:31:00,
2013-03-02 17:36:00,63.2,31.2,30.18,WNW,285,2.0,0.0,30,0.00,CLR,FEW,0.00,WeatherDisplay:10.37,2013-03-02 23:36:00,
2013-03-02 17:41:00,63.6,29.9,30.18,NW,306,2.0,0.0,28,0.00,CLR,FEW,0.00,WeatherDisplay:10.37,2013-03-02 23:41:00,
2013-03-02 17:46:00,63.7,30.8,30.18,NW,310,2.0,0.0,29,0.00,CLR,FEW,0.00,WeatherDisplay:10.37,2013-03-02 23:46:00,
2013-03-02 17:51:00,63.5,29.8,30.18,NW,317,2.0,0.0,28,0.00,CLR,FEW,0.00,WeatherDisplay:10.37,2013-03-02 23:51:00,
2013-03-02 17:56:00,63.9,31.0,30.18,NNW,328,2.0,0.0,29,0.00,CLR,FEW,0.00,WeatherDisplay:10.37,2013-03-02 23:56:00,
2013-03-02 18:01:00,64.0,31.1,30.17,NNW,328,1.0,0.0,29,0.00,CLR,FEW,0.00,WeatherDisplay:10.37,2013-03-03 00:01:00,
2013-03-02 18:11:00,63.3,31.3,30.18,North,358,1.0,0.0,30,0.00,CLR,FEW,0.00,WeatherDisplay:10.37,2013-03-03 00:11:00,
2013-03-02 18:16:00,63.5,32.3,30.18,North,349,0.0,0.0,31,0.00,CLR,FEW,0.00,WeatherDisplay:10.37,2013-03-03 00:16:00,
2013-03-02 18:21:00,63.3,32.1,30.18,NNW,330,1.0,0.0,31,0.00,CLR,FEW,0.00,WeatherDisplay:10.37,2013-03-03 00:21:00,
2013-03-02 18:26:00,62.8,32.5,30.18,NW,317,0.0,0.0,32,0.00,CLR,FEW,0.00,WeatherDisplay:10.37,2013-03-03 00:26:00,
2013-03-02 18:31:00,62.3,31.2,30.18,NW,315,0.0,0.0,31,0.00,CLR,FEW,0.00,WeatherDisplay:10.37,2013-03-03 00:31:00,
2013-03-02 18:36:00,61.7,30.7,30.18,NW,315,0.0,0.0,31,0.00,CLR,FEW,0.00,WeatherDisplay:10.37,2013-03-03 00:36:00,
2013-03-02 18:41:00,61.0,30.1,30.18,NW,315,1.0,0.0,31,0.00,CLR,FEW,0.00,WeatherDisplay:10.37,2013-03-03 00:41:00,
2013-03-02 18:46:00,60.3,29.5,30.17,NW,315,0.0,0.0,31,0.00,CLR,FEW,0.00,WeatherDisplay:10.37,2013-03-03 00:46:00,
2013-03-02 18:51:00,59.4,30.2,30.18,NNW,337,0.0,0.0,33,0.00,CLR,FEW,0.00,WeatherDisplay:10.37,2013-03-03 00:51:00,
2013-03-02 18:56:00,58.6,30.2,30.17,North,353,0.0,0.0,34,0.00,CLR,FEW,0.00,WeatherDisplay:10.37,2013-03-03 00:56:00,
2013-03-02 19:01:00,57.7,30.2,30.18,North,0,0.0,0.0,35,0.00,CLR,FEW,0.00,WeatherDisplay:10.37,2013-03-03 01:01:00,
2013-03-02 19:06:00,56.9,30.2,30.18,North,0,0.0,0.0,36,0.00,CLR,FEW,0.00,WeatherDisplay:10.37,2013-03-03 01:06:00,
2013-03-02 19:11:00,56.3,30.4,30.18,North,0,0.0,0.0,37,0.00,CLR,FEW,0.00,WeatherDisplay:10.37,2013-03-03 01:11:00,
2013-03-02 19:16:00,55.9,30.0,30.18,North,0,0.0,0.0,37,0.00,CLR,FEW,0.00,WeatherDisplay:10.37,2013-03-03 01:16:00,
2013-03-02 20:05:00,52.0,33.4,30.18,North,0,0.0,0.0,49,0.00,CLR,FEW,0.00,WeatherDisplay:10.37,2013-03-03 02:05:00,
2013-03-02 20:10:00,51.6,33.6,30.18,North,0,1.2,0.0,50,0.00,CLR,FEW,0.00,WeatherDisplay:10.37,2013-03-03 02:10:00,
2013-03-02 20:15:00,51.3,32.7,30.18,North,0,1.2,0.0,49,0.00,CLR,FEW,0.00,WeatherDisplay:10.37,2013-03-03 02:15:00,
2013-03-02 20:20:00,50.9,32.9,30.18,North,0,0.0,0.0,50,0.00,CLR,FEW,0.00,WeatherDisplay:10.37,2013-03-03 02:20:00,
2013-03-02 20:25:00,50.7,32.7,30.18,North,0,1.2,0.0,50,0.00,CLR,FEW,0.00,WeatherDisplay:10.37,2013-03-03 02:25:00,
2013-03-02 20:30:00,50.5,32.1,30.18,North,0,1.2,1.2,49,0.00,CLR,FEW,0.00,WeatherDisplay:10.37,2013-03-03 02:30:00,
2013-03-02 20:35:00,50.4,32.4,30.18,North,0,1.2,0.0,50,0.00,CLR,FEW,0.00,WeatherDisplay:10.37,2013-03-03 02:35:00,
2013-03-02 20:40:00,50.2,33.2,30.18,North,0,0.0,0.0,52,0.00,CLR,FEW,0.00,WeatherDisplay:10.37,2013-03-03 02:40:00,
2013-03-02 20:45:00,50.0,34.5,30.18,North,0,0.0,0.0,55,0.00,CLR,FEW,0.00,WeatherDisplay:10.37,2013-03-03 02:45:00,
2013-03-02 20:50:00,50.0,35.4,30.18,North,0,0.0,0.0,57,0.00,CLR,FEW,0.00,WeatherDisplay:10.37,2013-03-03 02:50:00,
2013-03-02 20:55:00,49.6,35.0,30.18,North,0,0.0,0.0,57,0.00,CLR,FEW,0.00,WeatherDisplay:10.37,2013-03-03 02:55:00,
2013-03-02 21:00:00,49.3,35.1,30.18,North,0,0.0,0.0,58,0.00,CLR,FEW,0.00,WeatherDisplay:10.37,2013-03-03 03:00:00,
2013-03-02 21:05:00,48.9,35.2,30.18,North,0,0.0,0.0,59,0.00,CLR,FEW,0.00,WeatherDisplay:10.37,2013-03-03 03:05:00,
2013-03-02 21:10:00,48.4,34.7,30.18,North,0,0.0,0.0,59,0.00,CLR,FEW,0.00,WeatherDisplay:10.37,2013-03-03 03:10:00,
2013-03-02 21:15:00,48.0,34.8,30.18,North,0,0.0,0.0,60,0.00,CLR,FEW,0.00,WeatherDisplay:10.37,2013-03-03 03:15:00,
2013-03-02 21:20:00,47.8,35.4,30.18,North,0,0.0,0.0,62,0.00,CLR,FEW,0.00,WeatherDisplay:10.37,2013-03-03 03:20:00,
2013-03-02 21:25:00,47.5,35.5,30.18,North,0,0.0,0.0,63,0.00,CLR,FEW,0.00,WeatherDisplay:10.37,2013-03-03 03:25:00,
2013-03-02 21:30:00,47.3,36.1,30.18,North,0,0.0,0.0,65,0.00,CLR,FEW,0.00,WeatherDisplay:10.37,2013-03-03 03:30:00,
2013-03-02 21:35:00,46.9,36.2,30.18,North,0,0.0,0.0,66,0.00,CLR,FEW,0.00,WeatherDisplay:10.37,2013-03-03 03:35:00,
2013-03-02 21:40:00,46.8,36.0,30.18,North,0,0.0,0.0,66,0.00,CLR,FEW,0.00,WeatherDisplay:10.37,2013-03-03 03:40:00,
2013-03-02 21:45:00,46.4,35.7,30.18,North,0,0.0,0.0,66,0.00,CLR,FEW,0.00,WeatherDisplay:10.37,2013-03-03 03:45:00,
2013-03-02 21:50:00,46.0,35.3,30.18,North,0,1.2,1.2,66,0.00,CLR,FEW,0.00,WeatherDisplay:10.37,2013-03-03 03:50:00,
2013-03-02 21:55:00,45.9,35.5,30.18,North,0,0.0,0.0,67,0.00,CLR,FEW,0.00,WeatherDisplay:10.37,2013-03-03 03:55:00,
2013-03-02 22:00:00,45.9,35.9,30.18,North,0,0.0,0.0,68,0.00,CLR,FEW,0.00,WeatherDisplay:10.37,2013-03-03 04:00:00,
2013-03-02 22:05:00,45.7,36.1,30.18,North,0,0.0,0.0,69,0.00,CLR,FEW,0.00,WeatherDisplay:10.37,2013-03-03 04:05:00,
2013-03-02 22:10:00,45.5,35.9,30.18,North,0,1.2,0.0,69,0.00,CLR,FEW,0.00,WeatherDisplay:10.37,2013-03-03 04:10:00,
2013-03-02 22:15:00,45.1,35.6,30.18,North,0,0.0,0.0,69,0.00,CLR,FEW,0.00,WeatherDisplay:10.37,2013-03-03 04:15:00,
2013-03-02 22:20:00,45.0,35.8,30.18,North,0,0.0,0.0,70,0.00,CLR,FEW,0.00,WeatherDisplay:10.37,2013-03-03 04:20:00,
2013-03-02 22:25:00,44.8,35.9,30.18,North,0,0.0,0.0,71,0.00,CLR,FEW,0.00,WeatherDisplay:10.37,2013-03-03 04:25:00,
2013-03-02 22:30:00,44.6,35.8,30.18,North,0,0.0,0.0,71,0.00,CLR,FEW,0.00,WeatherDisplay:10.37,2013-03-03 04:30:00,
2013-03-02 22:41:00,44.2,35.8,30.17,North,0,0.0,0.0,72,0.00,CLR,FEW,0.00,WeatherDisplay:10.37,2013-03-03 04:41:00,
2013-03-02 22:46:00,44.1,35.3,30.18,North,0,0.0,0.0,71,0.00,CLR,FEW,0.00,WeatherDisplay:10.37,2013-03-03 04:46:00,
2013-03-02 22:51:00,44.1,35.6,30.18,North,0,0.0,0.0,72,0.00,CLR,FEW,0.00,WeatherDisplay:10.37,2013-03-03 04:51:00,
2013-03-02 22:56:00,43.9,35.4,30.18,North,0,0.0,0.0,72,0.00,CLR,FEW,0.00,WeatherDisplay:10.37,2013-03-03 04:56:00,
2013-03-02 23:01:00,43.7,35.3,30.18,North,0,0.0,0.0,72,0.00,CLR,FEW,0.00,WeatherDisplay:10.37,2013-03-03 05:01:00,
2013-03-02 23:06:00,43.5,35.1,30.18,North,0,0.0,0.0,72,0.00,CLR,FEW,0.00,WeatherDisplay:10.37,2013-03-03 05:06:00,
2013-03-02 23:10:00,43.3,34.6,30.19,North,0,1.6,0.0,71,0.00,CLR,FEW,0.00,WeatherDisplay:10.37,2013-03-03 05:10:00,
2013-03-02 23:14:00,43.3,34.2,30.18,North,0,1.2,0.0,70,0.00,CLR,FEW,0.00,WeatherDisplay:10.37,2013-03-03 05:14:00,
2013-03-02 23:16:00,43.3,33.5,30.18,North,0,1.2,0.0,68,0.00,CLR,FEW,0.00,WeatherDisplay:10.37,2013-03-03 05:16:00,
2013-03-02 23:22:00,43.5,33.3,30.18,North,0,0.0,0.0,67,0.00,CLR,FEW,0.00,WeatherDisplay:10.37,2013-03-03 05:22:00,
2013-03-02 23:27:00,43.7,33.1,30.18,North,0,0.0,0.0,66,0.00,CLR,FEW,0.00,WeatherDisplay:10.37,2013-03-03 05:27:00,
2013-03-02 23:32:00,43.7,32.7,30.18,North,0,0.0,0.0,65,0.00,CLR,FEW,0.00,WeatherDisplay:10.37,2013-03-03 05:32:00,
2013-03-02 23:37:00,43.5,32.5,30.17,North,0,0.0,0.0,65,0.00,CLR,FEW,0.00,WeatherDisplay:10.37,2013-03-03 05:37:00,
2013-03-02 23:42:00,43.3,32.0,30.17,North,0,0.0,0.0,64,0.00,CLR,FEW,0.00,WeatherDisplay:10.37,2013-03-03 05:42:00,
2013-03-02 23:47:00,43.2,32.2,30.17,North,0,1.2,0.0,65,0.00,CLR,FEW,0.00,WeatherDisplay:10.37,2013-03-03 05:47:00,
2013-03-02 23:52:00,43.0,32.4,30.17,North,0,0.0,0.0,66,0.00,CLR,FEW,0.00,WeatherDisplay:10.37,2013-03-03 05:52:00,
2013-03-02 23:57:00,42.8,31.8,30.16,North,0,0.0,0.0,65,0.00,CLR,FEW,0.00,WeatherDisplay:10.37,2013-03-03 05:57:00,